"Pseudo-MPEC" for Sar2786

Created 2024 Nov 18 0:31:06 UT using Find_Orb

Click here for an explanation of pseudo-MPECs

 
 Astrometry: 
     Sar2786* C2024 11 10.09731 11 03 48.71 +31 48 27.1    ~BA4H 19.8 GVNEOCPK88
     Sar2786  C2024 11 10.10845 11 03 52.08 +31 49 14.0    ~BA4H 19.7 GVNEOCPK88
     Sar2786  C2024 11 10.11960 11 03 55.37 +31 50 01.7    ~BA4H 19.8 GVNEOCPK88
     Sar2786  C2024 11 10.14846 11 04 03.86 +31 52 04.2    ~BA4H       VNEOCPK88
     Sar2786  C2024 11 10.15428 11 04 05.58 +31 52 29.6    ~BA4H 19.5 GVNEOCPK88
     Sar2786  C2024 11 10.16075 11 04 07.41 +31 52 57.4    ~BAAH 19.8 GVNEOCPK88
     Sar2786  C2024 11 10.16373 11 04 08.28 +31 53 10.2    ~BAAH 19.7 GVNEOCPK88
     Sar2786 KC2024 11 10.17186711 04 10.64 +31 53 44.8    ~BA5H 19.6 GVNEOCPK88
     Sar2786 KC2024 11 10.17385011 04 11.19 +31 53 53.0    ~BA5H 19.8 GVNEOCPK88
     Sar2786 KB2024 11 10.42891 11 05 27.367+32 12 00.72   ~BABH 20.4 rZNEOCPH36
     Sar2786 KB2024 11 10.44955 11 05 33.238+32 13 29.68   ~BABHx20.6 rZNEOCPH36
     Sar2786 KC2024 11 10.48892 11 05 45.204+32 16 17.72   ~BAGl 19.4 GVNEOCPV21
     Sar2786 KC2024 11 10.50365 11 05 49.757+32 17 20.62   ~BAGl 19.2 GVNEOCPV21
     Sar2786 0C2024 11 10.53102 11 05 57.81 +32 19 16.4    ~BAGHx      VNEOCPU94
     Sar2786 0C2024 11 10.53547 11 05 59.14 +32 19 35.8    ~BAGH 19.4 GVNEOCPU94
     Sar2786 pC2024 11 11.02400311 08 27.45 +32 54 34.1    ~BB1lx20.1 GVNEOCPL01
     Sar2786 pC2024 11 11.03069011 08 29.58 +32 55 02.3    ~BB1lx20.0 GVNEOCPL01
     Sar2786 KC2024 11 11.03708411 08 31.49 +32 55 29.7    ~BB3Hx19.5 GVNEOCPK88
     Sar2786 IC2024 11 11.03919711 08 32.26 +32 55 40.9    ~BB1lx20.0 GVNEOCPL01
     Sar2786 KC2024 11 11.04962211 08 35.34 +32 56 24.0    ~BB3Hx19.7 GVNEOCPK88
     Sar2786 KC2024 11 11.05501111 08 37.01 +32 56 47.4    ~BB3Hx19.8 GVNEOCPK88
     Sar2786 KC2024 11 11.05724411 08 37.70 +32 56 57.0    ~BB3Hx19.7 GVNEOCPK88
     Sar2786 KC2024 11 11.06394011 08 39.82 +32 57 25.8    ~BB3H 19.7 GVNEOCPK88
     Sar2786 KC2024 11 11.07063711 08 41.90 +32 57 54.7    ~BB3H 19.8 GVNEOCPK88
     Sar2786 KC2024 11 11.08462911 08 46.19 +32 58 55.7    ~BB3H 19.6 GVNEOCPK88
     Sar2786 KC2024 11 11.09132711 08 48.21 +32 59 24.8    ~BB3H 19.6 GVNEOCPK88
     Sar2786 KC2024 11 11.09802211 08 50.26 +32 59 53.6    ~BB3H 19.7 GVNEOCPK88
     Sar2786 KB2024 11 11.18149 11 09 16.06 +33 05 54.3    ~BCN2 20.5 GVNEOCP204
     Sar2786 KB2024 11 11.19904 11 09 21.44 +33 07 10.5    ~BCN2       VNEOCP204
     Sar2786 KC2024 11 12.03292111 13 43.95 +34 07 34.5    ~BC2V 20.0 GVNEOCPK88
     Sar2786 KC2024 11 12.03447511 13 44.43 +34 07 41.4    ~BC2V 19.8 GVNEOCPK88
     Sar2786 KC2024 11 12.05138211 13 49.84 +34 08 54.8    ~BC2V 19.5 GVNEOCPK88
     Sar2786 KC2024 11 12.05645411 13 51.54 +34 09 17.4    ~BC2V 19.5 GVNEOCPK88
     Sar2786 KC2024 11 12.06291511 13 53.57 +34 09 45.3    ~BC2V 19.6 GVNEOCPK88
     Sar2786 KC2024 11 12.06738211 13 54.99 +34 10 05.4    ~BC2V 19.7 GVNEOCPK88
     Sar2786 KC2024 11 12.08098211 13 59.37 +34 11 06.1    ~BC2V       VNEOCPK88
     Sar2786 :C2024 11 12.19501 11 14 36.21 +34 19 26.6    ~BCI2 19.9 VqNEOCP950
     Sar2786 :C2024 11 12.21470 11 14 42.65 +34 20 53.8    ~BCI2 19.8 VqNEOCP950
     Sar2786 KC2024 11 13.50105711 21 50.340+35 55 34.10   ~BDCVx      VNEOCPI52
     Sar2786 KC2024 11 13.50230211 21 50.730+35 55 40.00   ~BDCVx      VNEOCPI52
     Sar2786 KC2024 11 13.50480611 21 51.490+35 55 51.40   ~BDCV       VNEOCPI52
     Sar2786 KB2024 11 14.14976311 25 35.376+36 43 47.50   ~BEDl 18.9 GXNEOCPL34
     Sar2786 KB2024 11 14.16745011 25 41.534+36 45 07.42   ~BEDl 19.6 GXNEOCPL34
     Sar2786 KB2024 11 14.48390 11 27 33.984+37 08 43.44   ~BECVx19.9 GVNEOCP734
     Sar2786 KB2024 11 14.48964 11 27 35.873+37 09 12.35   ~BECVx20.0 GVNEOCP734
     Sar2786 KB2024 11 17.10962 11 44 11.78 +40 26 13.5    ~BHAV 20.1 GXNEOCPM45
     Sar2786 KB2024 11 17.11559 11 44 14.12 +40 26 40.2    ~BHAV 19.9 GXNEOCPM45
     Sar2786 KB2024 11 17.12155 11 44 16.61 +40 27 05.1    ~BHAVx19.8 GXNEOCPM45

Station data:
(204) Schiaparelli Observatory  (N45.868292 E8.769720)  Italy.  Observer L.
   Buzzi. 0.60-m f/4.64 Newtonian + CCD0.84-m f/3.5 reflector + CCD.
(734) Farpoint Observatory, Eskridge  (N38.890239 W96.002420)  US/Kansas.
   Observer G. Hug. 0.69-m reflector + CCD.
(950) La Palma  (N28.760220 W17.882400)  Canary Islands (Spain).  Observers
   O. Vaduvescu, R. Ashley, P. Massana, C. Celma, M. Monelli, M. Rodriguez,
   M. Rodriguez-Alarcon. Measurers C. Boldea, O. Vaduvescu. 2.5-m f/3.3
   reflector + CCD.
(H36) Sandlot Observatory, Scranton  (N38.797718 W95.706550)  US/Kansas.
   Observer G. Hug. 0.56-m reflector + CCD.
(I52) Steward Observatory, Mt. Lemmon Station  (N32.442570 W110.788920)
   US/Arizona.  Observers T. A. Pruyne, B. M. Africano, E. J. Christensen, G.
   A. Farneth, D. C. Fuls, A. R. Gibbs, A. D. Grauer, H. Gröller, J. A.
   Johnson, R. A. Kowalski, S. M. Larson, G. J. Leonard, D. Rankin, R. L.
   Seaman, F. C. Shelly, K. W. Wierzchoś. 1.0-m prime focus + CCD.
(K88) GINOP-KHK, Piszkéstető  (N47.917453 E19.893670)  Hungary.  Observer K.
   Sárneczky. 0.60-m Schmidt + CCD.
(L01) Višnjan Observatory, Tičan  (N45.290897 E13.749300)  Croatia.
   Observers K. Korlević, D. Pujagic, V. Dobos. Measurers D. Pujagic, K.
   Korlević. 1.0-m f/2.9 reflector + CCD.
(L34) Galhassin Robotic Telescope, Isnello  (N37.939358 E14.020610)  Italy.
   Observer A. Nastasi. 0.40-m reflector + CCD.
(M45) Starhopper Observatory, Sfantu Gheorghe  (N45.865494 E25.768890)
   Romania.  Observer F. Ursache. 0.41-m f/7.5 reflector + CMO.
(U94) iTelescope Observatory, Beryl Junction  (N37.737780 W113.697500)
   US/Utah.  Observer H. Sato. 0.51-m f/4.5 Corrected Dall-Kirkham +
   CCD0.51-m f/6.8 astrograph + f/4.5 focal reducer + CCD.
(V21) Cewanee Observatory at DSNM  (N31.946619 W108.897690)  US/New Mexico.
   Observer D. T. Durig. 0.4-m f/8 Ritchey-Chrétien + 4656x3520 CCD.

Orbital elements:  Sar2786
   Perihelion 2024 Nov 4.34170 +/- 0.0181 TT =  8:12:03 (JD 2460618.84170)
Epoch 2024 Nov 17.0 TT = JDT 2460631.5   Earth MOID: 0.2809      AutoNEOCP
M   0.00000000 +/- 0.000031         (J2000 ecliptic)
n   0.00000000 +/- 1.38e-11         Peri.   14.27244 +/- 0.019
a <HUGE> +/- 0.0717                 Node   102.46154 +/- 0.0055
e   0.9999999 +/- 0                 Incl.   96.08789 +/- 0.009
P!!!!!!!  H   17.52    G   0.15     U -3.8
q 1.24718676 +/- 5.45e-5    Q <HUGE> +/- 2.29e+9
34 of 48 observations 2024 Nov. 10-17; mean residual 0".65
Residuals in arcseconds: 
241110 K88  1.1-  .96+    241111 L01( 1.5-  1.4+)   241112 K88  .24-  .17-    
241110 K88  .13+  .34+    241111 K88( 1.8-  .96+)   241112 K88  .72-  .66-    
241110 K88  .34+  .48+    241111 L01( .60-  3.1+)   241112 K88  .84-  .19-    
241110 K88  .56+  .13-    241111 K88( 1.8-  .95+)   241112 K88  .52-  .74+    
241110 K88  .70+  .45+    241111 K88( 1.5-  1.0+)   241112 950  .47-  .51-    
241110 K88  .18-  .65+    241111 K88( 1.5-  .93+)   241112 950  .97+  .07-    
241110 K88  .24-  .74+    241111 K88  .61-  .71+    241113 I52( 2.1+  1.1-)   
241110 K88  .61-  .63+    241111 K88  .27-  .59+    241113 I52( 1.7+  .72-)   
241110 K88  1.0-  .38+    241111 K88  .26-  .96+    241113 I52  .64+  .50-    
241110 H36  .37+  .42+    241111 K88  .67-  1.0+    241114 L34  .62+  .24-    
241110 H36( 3.0-  .82+)   241111 K88  .69-  .82+    241114 L34  .24+  .23+    
241110 V21  1.2-  .38-    241111 204  1.1+  .06-    241114 734( 1.8+  1.2-)   
241110 V21  .93+  .73-    241111 204  1.0+  .05+    241114 734( .02+  1.9+)   
241110 U94( .39-  1.5-)   241112 K88  .90-  .32+    241117 M45  .03+  .44+    
241110 U94  .33-  1.2-    241112 K88  1.1-  .39+    241117 M45  .63-  .00     
241111 L01( 2.4-  2.1+)   241112 K88  1.2-  .49-    241117 M45( .47+  2.2-)   

Ephemerides (geocentric):
Date (UTC) HH   RA             Dec           delta  r     elong  mag " sig PA
---- --------  ------------   ------------  ------ ------ -----  --- --------
2024 11 18 01  11 50 35.820   +41 36 31.62  .98417 1.2649  79.8 19.9 .355  48
2024 11 18 02  11 50 53.403   +41 39 39.86  .98390 1.2650  79.8 19.9 .366  48
2024 11 18 03  11 51 11.020   +41 42 48.06  .98363 1.2651  79.8 19.9 .378  48
2024 11 18 04  11 51 28.671   +41 45 56.24  .98336 1.2652  79.8 19.9 .390  48
2024 11 18 05  11 51 46.357   +41 49 04.39  .98309 1.2653  79.8 19.9 .402  48
2024 11 18 06  11 52 04.077   +41 52 12.50  .98282 1.2654  79.9 19.9 .413  48
2024 11 18 07  11 52 21.832   +41 55 20.58  .98256 1.2655  79.9 19.9 .426  48
2024 11 18 08  11 52 39.622   +41 58 28.63  .98229 1.2656  79.9 19.9 .438  48
2024 11 18 09  11 52 57.447   +42 01 36.64  .98203 1.2657  79.9 19.9 .450  48
2024 11 18 10  11 53 15.306   +42 04 44.61  .98177 1.2658  80.0 19.9 .462  48
2024 11 18 11  11 53 33.200   +42 07 52.54  .98151 1.2659  80.0 19.9 .475  48
2024 11 18 12  11 53 51.129   +42 11 00.43  .98125 1.2661  80.0 19.9 .487  48
2024 11 18 13  11 54 09.093   +42 14 08.27  .98100 1.2662  80.0 19.9 .500  48
2024 11 18 14  11 54 27.093   +42 17 16.08  .98074 1.2663  80.0 19.9 .513  48
2024 11 18 15  11 54 45.127   +42 20 23.84  .98049 1.2664  80.1 19.9 .526  48
2024 11 18 16  11 55 03.197   +42 23 31.56  .98023 1.2665  80.1 19.9 .539  49
2024 11 18 17  11 55 21.302   +42 26 39.23  .97998 1.2666  80.1 19.9 .552  49
2024 11 18 18  11 55 39.442   +42 29 46.85  .97973 1.2667  80.1 19.9 .565  49
2024 11 18 19  11 55 57.618   +42 32 54.43  .97949 1.2668  80.1 19.9 .579  49
2024 11 18 20  11 56 15.830   +42 36 01.95  .97924 1.2669  80.2 19.9 .593  49
2024 11 18 21  11 56 34.077   +42 39 09.43  .97899 1.2671  80.2 19.9 .606  49
2024 11 18 22  11 56 52.359   +42 42 16.85  .97875 1.2672  80.2 19.9 .620  49
2024 11 18 23  11 57 10.678   +42 45 24.22  .97851 1.2673  80.2 19.9 .634  49
2024 11 19 00  11 57 29.032   +42 48 31.53  .97827 1.2674  80.3 19.9 .648  49
2024 11 19 01  11 57 47.422   +42 51 38.78  .97803 1.2675  80.3 19.9 .663  49
2024 11 19 02  11 58 05.848   +42 54 45.98  .97779 1.2676  80.3 19.9 .677  49
2024 11 19 03  11 58 24.310   +42 57 53.12  .97755 1.2677  80.3 19.9 .691  49
2024 11 19 04  11 58 42.808   +43 01 00.20  .97732 1.2678  80.3 19.9 .706  49
2024 11 19 05  11 59 01.343   +43 04 07.22  .97708 1.2680  80.4 19.9 .721  49
2024 11 19 06  11 59 19.913   +43 07 14.18  .97685 1.2681  80.4 19.9 .736  49
2024 11 19 07  11 59 38.520   +43 10 21.07  .97662 1.2682  80.4 19.9 .751  49
2024 11 19 08  11 59 57.163   +43 13 27.90  .97639 1.2683  80.4 19.9 .766  49
2024 11 19 09  12 00 15.843   +43 16 34.66  .97616 1.2684  80.4 19.9 .781  49
2024 11 19 10  12 00 34.559   +43 19 41.36  .97594 1.2685  80.5 19.9 .796  49
2024 11 19 11  12 00 53.311   +43 22 47.98  .97571 1.2687  80.5 19.9 .811  49
2024 11 19 12  12 01 12.100   +43 25 54.54  .97549 1.2688  80.5 19.9 .827  49
2024 11 19 13  12 01 30.926   +43 29 01.02  .97527 1.2689  80.5 19.9 .843  49
2024 11 19 14  12 01 49.789   +43 32 07.43  .97505 1.2690  80.5 19.9 .859  49
2024 11 19 15  12 02 08.688   +43 35 13.77  .97483 1.2691  80.6 19.9 .874  49
2024 11 19 16  12 02 27.625   +43 38 20.03  .97461 1.2693  80.6 19.9 .890  49
2024 11 19 17  12 02 46.598   +43 41 26.22  .97439 1.2694  80.6 19.9 .906  49
2024 11 19 18  12 03 05.609   +43 44 32.32  .97418 1.2695  80.6 19.9 .922  49
2024 11 19 19  12 03 24.656   +43 47 38.35  .97397 1.2696  80.6 19.9 .939  50
2024 11 19 20  12 03 43.741   +43 50 44.30  .97376 1.2697  80.7 19.9 .955  50
2024 11 19 21  12 04 02.862   +43 53 50.17  .97354 1.2698  80.7 19.8 .972  50
2024 11 19 22  12 04 22.022   +43 56 55.95  .97334 1.2700  80.7 19.8 .989  50
2024 11 19 23  12 04 41.218   +44 00 01.65  .97313 1.2701  80.7 19.8 1.01  50
2024 11 20 00  12 05 00.452   +44 03 07.26  .97292 1.2702  80.7 19.8 1.02  50